This is the latest recevied weather packets stored in our database for station/object JQ1YUX-13. If no packets are shown the sender has not sent any weather packets the latest 10 day(s).
| Time | Temp. | Humidity | Pressure | Rain* | Wind** | Luminosity | Snow |
|---|---|---|---|---|---|---|---|
| 1777587185 | 11.11° C | 90% | 1008.8 hPa | 4.83 mm | - | - | - |
| 1777586286 | 11.11° C | 89% | 1009.3 hPa | 4.06 mm | - | - | - |
| 1777585384 | 11.11° C | 90% | 1009.4 hPa | 3.56 mm | - | - | - |
| 1777584485 | 11.67° C | 90% | 1009.7 hPa | 2.29 mm | - | - | - |
| 1777583585 | 11.67° C | 90% | 1010.4 hPa | 0.76 mm | - | - | - |
| 1777582685 | 11.67° C | 90% | 1010.8 hPa | 0.25 mm | - | - | - |
| 1777581785 | 11.11° C | 90% | 1010.9 hPa | 0.51 mm | - | - | - |
| 1777580886 | 11.11° C | 90% | 1010.9 hPa | 1.27 mm | - | - | - |
| 1777579984 | 11.11° C | 90% | 1010.9 hPa | 2.29 mm | - | - | - |
| 1777579085 | 11.11° C | 90% | 1011.7 hPa | 2.29 mm | - | - | - |
| 1777578523 | 11.11° C | 90% | 1012.1 hPa | 2.29 mm | - | - | - |
| 1777578185 | 11.11° C | 90% | 1012.2 hPa | 2.54 mm | - | - | - |
| 1777577284 | 11.11° C | 90% | 1013.5 hPa | 2.29 mm | - | - | - |
| 1777576385 | 11.11° C | 90% | 1013.9 hPa | 1.78 mm | - | - | - |
| 1777575486 | 11.11° C | 90% | 1014.3 hPa | 1.52 mm | - | - | - |
| 1777574585 | 11.11° C | 90% | 1014.1 hPa | 1.27 mm | - | - | - |
| 1777573685 | 11.11° C | 90% | 1014.4 hPa | 0.76 mm | - | - | - |
| 1777572785 | 11.11° C | 90% | 1014.5 hPa | 0.51 mm | - | - | - |
| 1777571886 | 11.11° C | 90% | 1014.2 hPa | 0.51 mm | - | - | - |
| 1777570984 | 11.11° C | 90% | 1014.3 hPa | 0.51 mm | - | - | - |
| 1777570085 | 11.67° C | 90% | 1014.7 hPa | 0.76 mm | - | - | - |
| 1777569185 | 11.67° C | 90% | 1015 hPa | 0.51 mm | - | - | - |
| 1777568285 | 11.11° C | 90% | 1015.1 hPa | 0.51 mm | - | - | - |
| 1777567386 | 11.11° C | 90% | 1015.6 hPa | 0.51 mm | - | - | - |
| 1777566484 | 11.67° C | 90% | 1015.9 hPa | 0.51 mm | - | - | - |
* Rain latest hour (hover to see other rain measurements)
** Current wind speed in m/s (hover to see current wind gust speed)